Dover AFB, DE

6:13 AM EDT on August 23, 2017 (GMT -0400)
Dover Air Force Base

Weather History for KDOV - January, 2014

Change the Weather History Date:

Thursday, January 2, 2014

  Actual Average Record
Temperature  
Mean Temperature 32 °F -  
Max Temperature 37 °F 45 °F 66 °F (2000)
Min Temperature 26 °F 26 °F 6 °F (1968)
Degree Days  
Heating Degree Days 34    
Moisture  
Dew Point 32 °F    
Average Humidity 99    
Maximum Humidity 100    
Minimum Humidity 93    
Precipitation  
Precipitation 0.41 in - - ()
Snow  
Snow 0.00 in - - ()
Snow Depth 2.00 in    
Sea Level Pressure  
Sea Level Pressure 29.88 in    
Wind  
Wind Speed 5 mph (NNE)    
Max Wind Speed 18 mph    
Max Gust Speed 17 mph    
Visibility 4 miles    
Events Fog , Rain , Snow    
Averages and records for this station are not official NWS values.
T = Trace of Precipitation, MM = Missing Value Source: NWS Daily Summary

Daily Weather History Graph

Daily Weather History Graph

Search for Another Location

Airport or City:

Trip Planner

Search our weather history database for the weather conditions in past years. The results will help you decide how hot, cold, wet, or windy it might be!

Date:

Astronomy

Jan. 02, 2014 Rise Set
Actual Time 7:21 AM EST 4:50 PM EST
Civil Twilight 6:51 AM EST 5:20 PM EST
Nautical Twilight 6:17 AM EST 5:54 PM EST
Astronomical Twilight 5:45 AM EST 6:26 PM EST
Moon 8:01 AM EST (1/2) 6:44 PM EST (1/2)
Length of Visible Light 10h 29m
Length of Day
9h 29m
New Moon, 2% of the Moon is Illuminated
Jan 2
New Moon
Jan 7
First Quarter
Jan 15
Full
Jan 24
Last Quarter
Jan 30
New

Hourly Weather History & Observations

Time (EST) Temp. Windchill Dew Point Humidity Pressure Visibility Wind Dir Wind Speed Gust Speed Precip Events Conditions
12:08 AM 30.2 °F - 30.2 °F 100% 30.15 in 7.0 mi Variable 2.3 mph - N/A   Partly Cloudy
12:13 AM 32.0 °F - 30.2 °F 93% 30.14 in 3.0 mi Variable 2.3 mph - N/A   Partly Cloudy
12:18 AM 32.0 °F - 32.0 °F 100% 30.14 in 1.5 mi NE 1.2 mph - N/A   Clear
12:28 AM 32.0 °F - 32.0 °F 100% 30.14 in 5.0 mi NE 2.3 mph - N/A   Partly Cloudy
12:33 AM 32.0 °F - 32.0 °F 100% 30.14 in 6.0 mi Calm Calm - N/A   Scattered Clouds
12:43 AM 32.0 °F - 32.0 °F 100% 30.13 in 2.5 mi NE 2.3 mph - N/A   Mostly Cloudy
12:48 AM 32.0 °F - 32.0 °F 100% 30.13 in 1.0 mi Variable 2.3 mph - N/A   Mostly Cloudy
12:53 AM 32.0 °F 28.7 °F 32.0 °F 100% 30.13 in 1.2 mi NE 3.5 mph - N/A   Overcast
12:58 AM 32.0 °F 28.7 °F 32.0 °F 100% 30.14 in 2.5 mi ENE 3.5 mph - N/A   Overcast
1:03 AM 32.0 °F 28.7 °F 32.0 °F 100% 30.12 in 6.0 mi ENE 3.5 mph - N/A   Overcast
1:08 AM 32.0 °F 28.7 °F 32.0 °F 100% 30.12 in 10.0 mi ENE 3.5 mph - N/A   Overcast
1:13 AM 32.0 °F 27.5 °F 32.0 °F 100% 30.12 in 9.0 mi ENE 4.6 mph - N/A   Overcast
1:48 AM 33.8 °F 30.8 °F 33.8 °F 100% 30.11 in 10.0 mi East 3.5 mph - N/A   Overcast
1:58 AM 34.5 °F - 34.3 °F 99% 30.12 in 10.0 mi ENE 2.3 mph - N/A   Overcast
2:03 AM 35.6 °F - 35.6 °F 100% 30.11 in 9.0 mi NNW 1.2 mph - N/A   Overcast
2:33 AM 32.0 °F - 32.0 °F 100% 30.10 in 4.0 mi Calm Calm - N/A   Overcast
2:38 AM 32.0 °F - 32.0 °F 100% 30.10 in 1.8 mi Calm Calm - N/A   Overcast
2:43 AM 32.0 °F - 32.0 °F 100% 30.10 in 1.0 mi Calm Calm - N/A   Overcast
2:48 AM 32.0 °F - 32.0 °F 100% 30.10 in 0.5 mi Calm Calm - N/A Fog Fog
2:53 AM 32.0 °F - 32.0 °F 100% 30.10 in 0.5 mi ENE 1.2 mph - N/A Fog Fog
2:58 AM 32.7 °F - 32.7 °F 100% 30.11 in 0.5 mi Calm Calm - N/A Fog Fog
3:03 AM 32.0 °F - 32.0 °F 100% 30.09 in 0.5 mi NE 1.2 mph - N/A Fog Fog
3:13 AM 32.0 °F 28.7 °F 32.0 °F 100% 30.08 in 0.5 mi North 3.5 mph - N/A Fog Fog
3:23 AM 32.0 °F 27.5 °F 32.0 °F 100% 30.08 in 0.8 mi North 4.6 mph - N/A   Overcast
3:28 AM 32.0 °F 28.7 °F 32.0 °F 100% 30.08 in 1.0 mi North 3.5 mph - N/A   Mostly Cloudy
3:33 AM 32.0 °F 28.7 °F 32.0 °F 100% 30.08 in 0.8 mi NNW 3.5 mph - N/A   Mostly Cloudy
3:38 AM 32.0 °F - 32.0 °F 100% 30.08 in 1.0 mi North 2.3 mph - N/A   Scattered Clouds
3:43 AM 32.0 °F 28.7 °F 32.0 °F 100% 30.07 in 1.2 mi NNW 3.5 mph - N/A   Partly Cloudy
3:48 AM 32.0 °F 28.7 °F 32.0 °F 100% 30.07 in 1.0 mi NNW 3.5 mph - N/A   Partly Cloudy
3:53 AM 32.0 °F 28.7 °F 32.0 °F 100% 30.07 in 1.0 mi North 3.5 mph - N/A   Clear
3:58 AM 30.4 °F - 30.4 °F 100% 30.07 in 0.8 mi North 2.3 mph - N/A   Partly Cloudy
4:03 AM 32.0 °F 28.7 °F 32.0 °F 100% 30.05 in 0.5 mi North 3.5 mph - N/A Fog Light Freezing Fog
4:23 AM 30.2 °F 25.4 °F 30.2 °F 100% 30.04 in 0.2 mi North 4.6 mph - N/A Fog Light Freezing Fog
4:38 AM 28.4 °F 23.3 °F 28.4 °F 100% 30.03 in 0.5 mi NNW 4.6 mph - N/A Fog Light Freezing Fog
4:43 AM 30.2 °F 25.4 °F 30.2 °F 100% 30.03 in 0.5 mi NNW 4.6 mph - N/A Fog Light Freezing Fog
4:48 AM 30.2 °F 26.7 °F 30.2 °F 100% 30.03 in 1.0 mi NNW 3.5 mph - N/A   Mostly Cloudy
4:53 AM 30.2 °F 26.7 °F 30.2 °F 100% 30.03 in 3.0 mi NNW 3.5 mph - N/A   Mostly Cloudy
4:58 AM 29.8 °F - 29.8 °F 100% 30.04 in 4.0 mi NNW 2.3 mph - N/A   Mostly Cloudy
5:03 AM 30.2 °F - 30.2 °F 100% 30.03 in 5.0 mi NNW 2.3 mph - N/A   Mostly Cloudy
5:23 AM 30.2 °F 26.7 °F 30.2 °F 100% 30.03 in 4.0 mi NNW 3.5 mph - N/A   Partly Cloudy
5:33 AM 30.2 °F - 30.2 °F 100% 30.03 in 6.0 mi North 2.3 mph - N/A   Clear
5:53 AM 30.2 °F 25.4 °F 30.2 °F 100% 30.02 in 5.0 mi North 4.6 mph - N/A   Clear
5:58 AM 29.7 °F 24.7 °F 29.7 °F 100% 30.03 in 4.0 mi North 4.6 mph - N/A   Clear
6:03 AM 30.2 °F 25.4 °F 30.2 °F 100% 30.02 in 7.0 mi North 4.6 mph - N/A   Clear
6:13 AM 28.4 °F 23.3 °F 28.4 °F 100% 30.01 in 10.0 mi North 4.6 mph - N/A   Clear
6:18 AM 28.4 °F 24.6 °F 28.4 °F 100% 30.01 in 9.0 mi North 3.5 mph - N/A   Clear
6:28 AM 30.2 °F 25.4 °F 30.2 °F 100% 30.01 in 10.0 mi NNE 4.6 mph - N/A   Partly Cloudy
6:58 AM 30.6 °F 27.1 °F 30.6 °F 100% 30.02 in 10.0 mi NNE 3.5 mph - N/A   Clear
7:58 AM 29.7 °F 26.1 °F 29.7 °F 100% 30.00 in 6.0 mi NNE 3.5 mph - N/A   Clear
8:58 AM 32.5 °F 29.3 °F 32.5 °F 100% 29.99 in 10.0 mi NNE 3.5 mph - N/A   Clear
9:33 AM 35.6 °F 31.7 °F 35.6 °F 100% 29.97 in 10.0 mi NNE 4.6 mph - N/A   Mostly Cloudy
9:58 AM 36.7 °F 31.2 °F 36.5 °F 99% 29.98 in 10.0 mi NE 6.9 mph - N/A   Overcast
10:28 AM 37.4 °F 31.4 °F 37.4 °F 100% 29.95 in 10.0 mi NE 8.1 mph - N/A   Overcast
10:58 AM 36.7 °F 32.0 °F 36.7 °F 100% 29.94 in 8.0 mi NE 5.8 mph - N/A   Overcast
11:03 AM 37.4 °F 32.8 °F 37.4 °F 100% 29.92 in 7.0 mi NE 5.8 mph - N/A   Overcast
11:43 AM 37.4 °F 31.4 °F 37.4 °F 100% 29.88 in 8.0 mi NE 8.1 mph - N/A   Overcast
11:58 AM 37.6 °F 32.3 °F 37.6 °F 100% 29.88 in 9.0 mi NE 6.9 mph - N/A   Overcast
12:33 PM 37.4 °F 30.3 °F 37.4 °F 100% 29.84 in 10.0 mi NE 10.4 mph - N/A   Overcast
12:58 PM 37.9 °F 31.5 °F 37.8 °F 99% 29.84 in 10.0 mi NE 9.2 mph - N/A   Overcast
1:08 PM 37.4 °F 30.8 °F 37.4 °F 100% 29.82 in 10.0 mi NNE 9.2 mph - N/A   Overcast
1:23 PM 37.4 °F 29.8 °F 37.4 °F 100% 29.80 in 10.0 mi NNE 11.5 mph - N/A   Overcast
1:43 PM 37.4 °F 29.3 °F 37.4 °F 100% 29.79 in 10.0 mi NNE 12.7 mph - N/A   Overcast
1:58 PM 36.9 °F 30.7 °F 36.7 °F 99% 29.80 in 10.0 mi NE 8.1 mph - N/A   Overcast
2:58 PM 36.0 °F 29.0 °F 35.6 °F 99% 29.79 in 10.0 mi NNE 9.2 mph - N/A   Overcast
3:58 PM 35.1 °F 27.4 °F 34.9 °F 99% 29.77 in 10.0 mi NNE 10.4 mph - N/A   Overcast
4:58 PM 34.0 °F 27.2 °F 33.8 °F 99% 29.75 in 10.0 mi NNE 8.1 mph - N/A   Overcast
5:22 PM 33.8 °F 25.3 °F 32.0 °F 93% 29.71 in 10.0 mi NNE 11.5 mph - N/A Rain Light Rain
5:24 PM 33.8 °F 25.8 °F 32.0 °F 93% 29.71 in 10.0 mi NE 10.4 mph - N/A Rain , Snow Light Rain
5:30 PM 32.0 °F 24.2 °F 32.0 °F 100% 29.71 in 9.0 mi NE 9.2 mph - N/A Snow Light Snow
5:53 PM 32.0 °F 25.6 °F 32.0 °F 100% 29.70 in 7.0 mi NE 6.9 mph - N/A Rain , Snow Light Rain
5:58 PM 33.1 °F 26.1 °F 32.7 °F 99% 29.71 in 8.0 mi NE 8.1 mph - 0.00 in Rain , Snow Light Rain
6:14 PM 32.0 °F 24.2 °F 32.0 °F 100% 29.68 in 10.0 mi NE 9.2 mph - N/A Snow Light Snow
6:46 PM 32.0 °F 23.6 °F 32.0 °F 100% 29.67 in 6.0 mi NNE 10.4 mph - N/A Snow Light Snow
6:58 PM 32.4 °F 24.6 °F 32.0 °F 99% 29.68 in 7.0 mi NNE 9.2 mph - 0.00 in Snow Light Snow
7:08 PM 32.0 °F 24.8 °F 32.0 °F 100% 29.67 in 5.0 mi North 8.1 mph - N/A Snow Light Snow
7:33 PM 32.0 °F 24.2 °F 32.0 °F 100% 29.66 in 3.0 mi North 9.2 mph - N/A Snow Light Snow
7:43 PM 32.0 °F 23.0 °F 32.0 °F 100% 29.66 in 2.0 mi North 11.5 mph - N/A Snow Light Snow
7:53 PM 32.0 °F 24.2 °F 32.0 °F 100% 29.67 in 2.0 mi North 9.2 mph - N/A Snow Light Snow
7:58 PM 31.1 °F 23.1 °F 30.9 °F 99% 29.67 in 2.0 mi North 9.2 mph - 0.00 in Snow Light Snow
8:03 PM 32.0 °F 24.8 °F 32.0 °F 100% 29.67 in 1.8 mi North 8.1 mph - N/A Snow Light Snow
8:08 PM 32.0 °F 24.2 °F 32.0 °F 100% 29.66 in 1.8 mi North 9.2 mph - N/A Snow Light Snow
8:13 PM 32.0 °F 24.8 °F 32.0 °F 100% 29.66 in 1.5 mi North 8.1 mph - N/A Snow Light Snow
8:28 PM 32.0 °F 23.6 °F 32.0 °F 100% 29.64 in 1.8 mi North 10.4 mph - N/A Snow Light Snow
8:43 PM 32.0 °F 24.2 °F 32.0 °F 100% 29.63 in 1.5 mi North 9.2 mph - N/A Snow Light Snow
8:48 PM 32.0 °F 24.2 °F 30.2 °F 93% 29.62 in 1.2 mi North 9.2 mph - N/A Snow Light Snow
8:53 PM 32.0 °F 23.0 °F 30.2 °F 93% 29.62 in 1.2 mi North 11.5 mph - N/A Snow Light Snow
8:58 PM 30.4 °F 21.0 °F 30.0 °F 99% 29.64 in 1.2 mi North 11.5 mph - 0.00 in Snow Light Snow
9:03 PM 30.2 °F 20.8 °F 30.2 °F 100% 29.63 in 1.5 mi North 11.5 mph - N/A Snow Light Snow
9:08 PM 30.2 °F 20.2 °F 30.2 °F 100% 29.62 in 1.8 mi North 12.7 mph 17.3 mph N/A Snow Light Snow
9:23 PM 30.2 °F 20.8 °F 30.2 °F 100% 29.62 in 1.5 mi North 11.5 mph - N/A Snow Light Snow
9:28 PM 30.2 °F 20.2 °F 30.2 °F 100% 29.61 in 1.2 mi North 12.7 mph - N/A Snow Light Snow
9:38 PM 28.4 °F 18.5 °F 28.4 °F 100% 29.62 in 1.0 mi North 11.5 mph - N/A Snow Light Snow
9:48 PM 28.4 °F 18.0 °F 28.4 °F 100% 29.60 in 0.8 mi North 12.7 mph - N/A Snow Light Snow
9:53 PM 28.4 °F 17.5 °F 28.4 °F 100% 29.60 in 0.8 mi North 13.8 mph - N/A Snow Light Snow
9:58 PM 28.9 °F 19.8 °F 28.8 °F 99% 29.62 in 0.8 mi North 10.4 mph - 0.10 in Snow Light Snow
10:03 PM 28.4 °F 18.0 °F 28.4 °F 100% 29.61 in 0.8 mi North 12.7 mph - N/A Snow Light Snow
10:04 PM 28.4 °F 18.5 °F 28.4 °F 100% 29.61 in 0.8 mi North 11.5 mph - N/A   Mist
10:16 PM 28.4 °F 18.0 °F 28.4 °F 100% 29.60 in 0.8 mi North 12.7 mph - N/A Snow Light Snow
10:38 PM 28.4 °F 18.0 °F 28.4 °F 100% 29.60 in 1.5 mi North 12.7 mph - N/A Snow Light Snow
10:49 PM 28.4 °F 17.0 °F 28.4 °F 100% 29.60 in 1.2 mi North 15.0 mph - N/A Snow Light Snow
10:58 PM 27.9 °F 16.3 °F 27.7 °F 99% 29.61 in 1.2 mi North 15.0 mph - 0.06 in Snow Light Snow
11:04 PM 28.4 °F 16.2 °F 26.6 °F 93% 29.59 in 1.0 mi North 17.3 mph - N/A Snow Light Snow
11:30 PM 26.6 °F 14.7 °F 26.6 °F 100% 29.58 in 0.8 mi North 15.0 mph - N/A Snow Snow
11:41 PM 26.6 °F 14.3 °F 26.6 °F 100% 29.57 in 1.0 mi North 16.1 mph - N/A Snow Light Snow
11:48 PM 26.6 °F 13.4 °F 26.6 °F 100% 29.56 in 1.0 mi North 18.4 mph - N/A   Mist
11:58 PM 26.4 °F 14.5 °F 26.2 °F 99% 29.57 in 1.0 mi North 15.0 mph - 0.25 in Snow Light Snow